| time (UTC) | temp C | wind direction | speed KPH | gust KPH | rain 1hr cm | rain 24hr cm | rain mn cm | humidity % | barometer mb |
| 20260507044551 | 12 | 50 | 8.0 | 11.3 | 0.00 | 0.00 | 0.00 | 65 | 1019.2 |
| 20260507043047 | 12 | 55 | 8.0 | 9.7 | 0.00 | 0.00 | 0.00 | 65 | 1019.0 |
| 20260507041545 | 12 | 57 | 4.8 | 9.7 | 0.00 | 0.00 | 0.00 | 63 | 1018.9 |
| 20260507040044 | 13 | 75 | 6.4 | 14.5 | 0.00 | 0.00 | 0.00 | 62 | 1018.7 |
| 20260507034543 | 13 | 85 | 11.3 | 16.1 | 0.00 | 0.00 | 0.00 | 60 | 1018.4 |
| 20260507033048 | 14 | 79 | 12.9 | 17.7 | 0.00 | 0.00 | 0.00 | 60 | 1017.7 |
| 20260507031545 | 14 | 87 | 12.9 | 20.9 | 0.00 | 0.00 | 0.00 | 59 | 1017.5 |
| 20260507030044 | 14 | 78 | 14.5 | 17.7 | 0.00 | 0.00 | 0.00 | 58 | 1017.2 |
| 20260507024548 | 15 | 86 | 14.5 | 20.9 | 0.00 | 0.00 | 0.00 | 56 | 1017.1 |
| 20260507023051 | 15 | 78 | 14.5 | 20.9 | 0.00 | 0.00 | 0.00 | 55 | 1017.0 |
| 20260507021550 | 16 | 82 | 12.9 | 20.9 | 0.00 | 0.00 | 0.00 | 54 | 1016.8 |
| 20260507020053 | 16 | 88 | 12.9 | 19.3 | 0.00 | 0.00 | 0.00 | 52 | 1016.5 |
| 20260507014553 | 17 | 82 | 12.9 | 19.3 | 0.00 | 0.00 | 0.00 | 51 | 1016.3 |
| 20260507013051 | 17 | 90 | 14.5 | 20.9 | 0.00 | 0.00 | 0.00 | 49 | 1016.0 |
| 20260507011545 | 18 | 88 | 16.1 | 24.1 | 0.00 | 0.00 | 0.00 | 48 | 1015.7 |
| 20260507010055 | 18 | 82 | 16.1 | 25.7 | 0.00 | 0.00 | 0.00 | 47 | 1015.4 |
| 20260507004554 | 18 | 97 | 19.3 | 25.7 | 0.00 | 0.00 | 0.00 | 46 | 1015.3 |
| 20260507003050 | 19 | 85 | 16.1 | 25.7 | 0.00 | 0.00 | 0.00 | 45 | 1015.2 |
| 20260507001550 | 20 | 84 | 16.1 | 24.1 | 0.00 | 0.00 | 0.00 | 44 | 1015.1 |
| 20260507000047 | 20 | 76 | 19.3 | 25.7 | 0.00 | 0.00 | 0.00 | 43 | 1015.1 |
| 20260506234545 | 20 | 31 | 17.7 | 25.7 | 0.00 | 0.00 | 0.00 | 43 | 1015.0 |
| 20260506233059 | 20 | 59 | 19.3 | 25.7 | 0.00 | 0.00 | 0.00 | 43 | 1015.1 |
| 20260506231541 | 20 | 49 | 17.7 | 27.4 | 0.00 | 0.00 | 0.00 | 42 | 1015.1 |
| 20260506224545 | 21 | 24 | 19.3 | 25.7 | 0.00 | 0.00 | 0.00 | 41 | 1014.8 |
| 20260506223047 | 21 | 348 | 8.0 | 22.5 | 0.00 | 0.00 | 0.00 | 41 | 1014.7 |
| 20260506221548 | 20 | 47 | 14.5 | 24.1 | 0.00 | 0.00 | 0.00 | 42 | 1014.5 |
| 20260506220043 | 20 | 9 | 11.3 | 22.5 | 0.00 | 0.00 | 0.00 | 42 | 1014.5 |
| 20260506214551 | 21 | 73 | 17.7 | 27.4 | 0.00 | 0.00 | 0.00 | 42 | 1014.6 |
| 20260506213046 | 20 | 63 | 19.3 | 27.4 | 0.00 | 0.00 | 0.00 | 43 | 1014.5 |
| 20260506211544 | 20 | 84 | 17.7 | 27.4 | 0.00 | 0.00 | 0.00 | 43 | 1014.7 |
| 20260506210044 | 20 | 42 | 12.9 | 22.5 | 0.00 | 0.00 | 0.00 | 43 | 1014.9 |
| 20260506204548 | 20 | 65 | 12.9 | 24.1 | 0.00 | 0.00 | 0.00 | 43 | 1015.1 |
| 20260506203047 | 20 | 50 | 8.0 | 25.7 | 0.00 | 0.00 | 0.00 | 45 | 1015.3 |
| 20260506201545 | 20 | 24 | 14.5 | 25.7 | 0.00 | 0.00 | 0.00 | 44 | 1015.5 |
| 20260506200047 | 18 | 9 | 19.3 | 27.4 | 0.00 | 0.00 | 0.00 | 46 | 1015.7 |
| 20260506194553 | 18 | 42 | 16.1 | 27.4 | 0.00 | 0.00 | 0.00 | 46 | 1015.7 |
| 20260506193048 | 18 | 69 | 19.3 | 27.4 | 0.00 | 0.00 | 0.00 | 47 | 1015.7 |
| 20260506191548 | 18 | 67 | 8.0 | 29.0 | 0.00 | 0.00 | 0.00 | 48 | 1015.6 |
| 20260506190052 | 17 | 26 | 19.3 | 27.4 | 0.00 | 0.00 | 0.00 | 48 | 1015.9 |
| 20260506184556 | 17 | 61 | 16.1 | 25.7 | 0.00 | 0.00 | 0.00 | 49 | 1016.1 |
| 20260506183050 | 16 | 99 | 12.9 | 27.4 | 0.00 | 0.00 | 0.00 | 51 | 1016.4 |
| 20260506181549 | 16 | 63 | 19.3 | 29.0 | 0.00 | 0.00 | 0.00 | 50 | 1016.4 |
| 20260506180047 | 16 | 71 | 16.1 | 27.4 | 0.00 | 0.00 | 0.00 | 52 | 1016.5 |
| 20260506174547 | 15 | 44 | 19.3 | 27.4 | 0.00 | 0.00 | 0.00 | 54 | 1016.5 |
| 20260506173058 | 15 | 88 | 20.9 | 29.0 | 0.00 | 0.00 | 0.00 | 54 | 1016.8 |
| 20260506171550 | 15 | 67 | 19.3 | 30.6 | 0.00 | 0.00 | 0.00 | 56 | 1016.8 |
| 20260506170041 | 15 | 81 | 24.1 | 30.6 | 0.00 | 0.00 | 0.00 | 56 | 1017.1 |
| 20260506164558 | 14 | 86 | 19.3 | 27.4 | 0.00 | 0.00 | 0.00 | 58 | 1017.2 |
| 20260506163045 | 13 | 69 | 22.5 | 29.0 | 0.00 | 0.00 | 0.00 | 59 | 1017.4 |
| 20260506161544 | 13 | 105 | 22.5 | 29.0 | 0.00 | 0.00 | 0.00 | 60 | 1017.6 |
| 20260506160107 | 12 | 107 | 22.5 | 27.4 | 0.00 | 0.00 | 0.00 | 61 | 1017.6 |
| 20260506154550 | 12 | 63 | 20.9 | 29.0 | 0.00 | 0.00 | 0.00 | 62 | 1017.8 |
| 20260506153047 | 12 | 101 | 24.1 | 30.6 | 0.00 | 0.00 | 0.00 | 62 | 1017.9 |
| 20260506151545 | 12 | 80 | 24.1 | 30.6 | 0.00 | 0.00 | 0.00 | 61 | 1017.8 |
| 20260506150050 | 12 | 91 | 22.5 | 30.6 | 0.00 | 0.00 | 0.00 | 62 | 1017.5 |
| 20260506144544 | 12 | 71 | 20.9 | 29.0 | 0.00 | 0.00 | 0.00 | 63 | 1017.2 |
| 20260506143049 | 12 | 63 | 22.5 | 29.0 | 0.00 | 0.00 | 0.00 | 62 | 1016.7 |
| 20260506141607 | 11 | 74 | 25.7 | 30.6 | 0.00 | 0.00 | 0.00 | 63 | 1016.6 |
| 20260506140045 | 11 | 80 | 24.1 | 30.6 | 0.00 | 0.00 | 0.00 | 62 | 1016.6 |
| 20260506134547 | 11 | 67 | 25.7 | 29.0 | 0.00 | 0.00 | 0.00 | 62 | 1016.5 |
| 20260506133048 | 11 | 59 | 25.7 | 30.6 | 0.00 | 0.00 | 0.00 | 62 | 1016.1 |
| 20260506131547 | 11 | 15 | 22.5 | 30.6 | 0.00 | 0.00 | 0.00 | 63 | 1016.1 |
| 20260506130047 | 10 | 30 | 17.7 | 25.7 | 0.00 | 0.00 | 0.00 | 63 | 1015.9 |
| 20260506124546 | 10 | 39 | 19.3 | 27.4 | 0.00 | 0.00 | 0.00 | 64 | 1015.5 |
| 20260506123046 | 10 | 38 | 17.7 | 27.4 | 0.00 | 0.00 | 0.00 | 63 | 1015.4 |
| 20260506121548 | 10 | 49 | 24.1 | 29.0 | 0.00 | 0.00 | 0.00 | 62 | 1015.4 |
| 20260506120118 | 10 | 42 | 19.3 | 29.0 | 0.00 | 0.00 | 0.00 | 62 | 1015.4 |
| 20260506114547 | 10 | 49 | 16.1 | 29.0 | 0.00 | 0.00 | 0.00 | 62 | 1015.3 |
| 20260506113043 | 10 | 61 | 22.5 | 30.6 | 0.00 | 0.00 | 0.00 | 63 | 1015.0 |
| 20260506111541 | 10 | 51 | 19.3 | 29.0 | 0.00 | 0.00 | 0.00 | 64 | 1014.7 |
| 20260506110048 | 10 | 46 | 14.5 | 27.4 | 0.00 | 0.00 | 0.00 | 65 | 1014.8 |
| 20260506104544 | 10 | 55 | 19.3 | 25.7 | 0.00 | 0.00 | 0.00 | 66 | 1014.5 |
| 20260506103046 | 10 | 55 | 17.7 | 29.0 | 0.00 | 0.00 | 0.00 | 68 | 1014.6 |
| 20260506101548 | 10 | 49 | 16.1 | 25.7 | 0.00 | 0.00 | 0.00 | 70 | 1014.9 |
| 20260506100043 | 10 | 48 | 17.7 | 27.4 | 0.00 | 0.00 | 0.00 | 72 | 1014.6 |
| 20260506094547 | 10 | 55 | 20.9 | 29.0 | 0.00 | 0.00 | 0.00 | 74 | 1014.5 |
| 20260506093050 | 10 | 28 | 20.9 | 29.0 | 0.00 | 0.00 | 0.00 | 75 | 1014.3 |
| 20260506091545 | 10 | 43 | 17.7 | 25.7 | 0.00 | 0.00 | 0.00 | 76 | 1014.2 |
| 20260506090045 | 10 | 55 | 16.1 | 24.1 | 0.00 | 0.00 | 0.00 | 77 | 1014.2 |
| 20260506084548 | 9 | 50 | 14.5 | 24.1 | 0.00 | 0.00 | 0.00 | 79 | 1014.2 |
| 20260506083047 | 10 | 42 | 19.3 | 27.4 | 0.00 | 0.00 | 0.00 | 79 | 1013.9 |
| 20260506081550 | 10 | 48 | 16.1 | 22.5 | 0.00 | 0.00 | 0.00 | 78 | 1013.7 |
| 20260506073043 | 10 | 30 | 12.9 | 20.9 | 0.00 | 0.00 | 0.00 | 78 | 1013.0 |
| 20260506071553 | 10 | 52 | 14.5 | 19.3 | 0.00 | 0.00 | 0.00 | 77 | 1012.9 |
| 20260506070107 | 10 | 30 | 12.9 | 19.3 | 0.00 | 0.00 | 0.00 | 76 | 1013.2 |
| 20260506061548 | 10 | 68 | 16.1 | 24.1 | 0.00 | 0.00 | 0.00 | 77 | 1012.6 |
| 20260506050120 | 10 | 33 | 19.3 | 29.0 | 0.00 | 0.00 | 0.00 | 76 | 1012.8 |